Waarnemingen

Advertentie
Mijn weer
Spa/La Sauveniere, België (6490): temperatuur & dauwpunt: 09.10.2019 21:00:00 - 15.10.2019 21:00:00 (CEST)Spa/La Sauveniere, België (6490): windsnelheid & windstoten: 09.10.2019 21:00:00 - 15.10.2019 21:00:00 (CEST)Spa/La Sauveniere, België (6490): windrichting: 09.10.2019 21:00:00 - 15.10.2019 21:00:00 (CEST)Spa/La Sauveniere, België (6490): luchtdruk: 09.10.2019 21:00:00 - 15.10.2019 21:00:00 (CEST)Spa/La Sauveniere, België (6490): zicht: 09.10.2019 21:00:00 - 15.10.2019 21:00:00 (CEST)
Datum & Tijd tt [°C] td [°C] ff [km/u] ff [kn] fx [km/u] fx [kn] dd ppp [hPa] vv [km]
15.10.2019 21:00:00 - - - - - - - - -
15.10.2019 20:00:00 10,5 7,5 7 4 - - WZW 1008,6 5
15.10.2019 19:00:00 11,4 10,2 7 4 18 10 ZW 1007,7 21
15.10.2019 18:00:00 11,6 10,4 7 4 14 8 ZZW 1007,3 13
15.10.2019 17:00:00 12,0 11,5 7 4 - - ZW 1007,1 15
15.10.2019 16:00:00 12,6 9,6 7 4 22 12 WZW 1007,1 15
15.10.2019 15:00:00 12,7 11,4 11 6 14 8 WZW 1007,1 24
15.10.2019 14:00:00 12,6 11,6 7 4 - - WZW 1007,6 28
15.10.2019 13:00:00 12,7 11,6 11 6 22 12 Z 1007,8 11
15.10.2019 12:00:00 12,5 9,7 11 6 22 12 Z 1007,7 20
15.10.2019 11:00:00 12,5 9,9 11 6 - - ZZO 1006,8 30
15.10.2019 10:00:00 12,3 11,5 7 4 18 10 Z 1007,1 27
15.10.2019 09:00:00 12,1 8,9 11 6 18 10 Z 1007,1 16
15.10.2019 08:00:00 12,7 9,2 11 6 - - ZZW 1006,6 35
15.10.2019 07:00:00 12,7 11,3 14 8 22 12 ZZO 1006,1 35
15.10.2019 06:00:00 12,9 9,6 14 8 25 14 ZZO 1006,4 30
15.10.2019 05:00:00 13,5 9,8 14 8 - - ZZO 1006,4 35
15.10.2019 04:00:00 13,8 10,1 18 10 22 12 ZZO 1006,7 40
15.10.2019 03:00:00 14,6 11,1 14 8 29 16 Z 1007,4 30
15.10.2019 02:00:00 15,4 11,0 18 10 - - Z 1007,4 30
15.10.2019 01:00:00 15,9 10,9 18 10 29 16 Z 1007,5 35
15.10.2019 00:00:00 15,9 10,5 18 10 29 16 ZZO 1007,3 35
14.10.2019 23:00:00 16,7 11,1 22 12 - - ZZO 1007,2 40
14.10.2019 22:00:00 17,3 11,5 22 12 40 21 Z 1007,6 40
14.10.2019 21:00:00 17,1 11,6 25 14 43 23 ZZO 1007,5 40
14.10.2019 20:00:00 16,9 11,5 29 16 - - ZZO 1007,7 40
14.10.2019 19:00:00 17,3 11,3 25 14 47 25 Z 1007,5 40
14.10.2019 18:00:00 18,3 11,9 29 16 43 23 Z 1007,5 40
14.10.2019 17:00:00 19,1 12,5 25 14 - - Z 1008,2 30
14.10.2019 16:00:00 19,2 12,6 29 16 47 25 ZZO 1008,6 35
14.10.2019 15:00:00 19,5 12,1 32 18 47 25 ZZO 1008,9 30
14.10.2019 14:00:00 19,4 12,1 29 16 - - ZZO 1009,4 35
14.10.2019 13:00:00 17,9 12,6 29 16 43 23 ZZO 1010,8 40
14.10.2019 12:00:00 16,7 12,5 32 18 43 23 ZZO 1011,3 29
14.10.2019 11:00:00 14,3 11,2 25 14 - - ZZO 1012,4 27
14.10.2019 10:00:00 13,3 11,3 25 14 40 21 ZZO 1012,8 30
14.10.2019 09:00:00 13,2 11,7 29 16 40 21 ZZO 1012,7 22
14.10.2019 08:00:00 13,4 12,2 11 6 - - ZZO 1012,8 11
14.10.2019 07:00:00 13,4 10,7 14 8 25 14 ZO 1013,2 20
14.10.2019 06:00:00 13,2 13,2 7 4 14 8 ZZO 1013,6 18
14.10.2019 05:00:00 13,1 10,0 7 4 - - O 1014,1 14
14.10.2019 04:00:00 13,1 10,2 4 2 7 4 W 1014,4 10
14.10.2019 03:00:00 14,3 13,7 4 2 11 6 NW 1014,2 7
14.10.2019 02:00:00 14,5 12,0 4 2 - - NNW 1013,6 3,9
14.10.2019 01:00:00 15,5 12,7 11 6 25 14 WZW 1013,2 27
14.10.2019 00:00:00 16,4 13,2 14 8 32 18 ZW 1012,8 30
13.10.2019 23:00:00 16,6 13,5 18 10 - - ZW 1012,4 30
13.10.2019 22:00:00 15,9 12,6 14 8 43 23 Z 1011,7 29
13.10.2019 21:00:00 18,7 12,2 18 10 32 18 ZZW 1010,5 40
13.10.2019 20:00:00 18,8 11,8 14 8 - - Z 1009,8 45
13.10.2019 19:00:00 19,2 11,8 18 10 40 21 ZZW 1009,4 40
13.10.2019 18:00:00 20,7 12,3 22 12 43 23 ZZW 1008,8 35
13.10.2019 17:00:00 21,3 12,3 25 14 - - ZZW 1008,4 35
13.10.2019 16:00:00 21,3 12,5 25 14 47 25 Z 1008,1 30
13.10.2019 15:00:00 21,0 12,6 25 14 47 25 ZZW 1008,3 45
13.10.2019 14:00:00 20,8 13,0 22 12 - - Z 1008,5 30
13.10.2019 13:00:00 19,7 12,8 25 14 47 25 Z 1008,9 35
13.10.2019 12:00:00 18,2 12,8 29 16 47 25 Z 1009,7 28
13.10.2019 11:00:00 16,7 12,8 25 14 - - Z 1009,8 35
13.10.2019 10:00:00 15,4 12,3 22 12 40 21 Z 1010,2 45
13.10.2019 09:00:00 15,4 12,8 25 14 43 23 Z 1010,3 35
13.10.2019 08:00:00 14,3 12,5 25 14 - - Z 1010,2 29
13.10.2019 07:00:00 14,5 12,9 25 14 40 21 ZZO 1010,3 23
13.10.2019 06:00:00 14,7 13,2 25 14 40 21 ZZO 1010,1 17
13.10.2019 05:00:00 14,6 13,1 22 12 - - ZZO 1010,3 14
13.10.2019 04:00:00 14,9 13,4 22 12 36 19 Z 1010,5 19
13.10.2019 03:00:00 14,9 13,2 18 10 32 18 Z 1011,0 19
13.10.2019 02:00:00 14,8 13,1 22 12 - - Z 1011,3 28
13.10.2019 01:00:00 14,3 13,2 11 6 25 14 ZZO 1011,7 25
13.10.2019 00:00:00 14,1 10,7 11 6 22 12 Z 1011,8 29
12.10.2019 23:00:00 14,4 12,8 11 6 - - ZZW 1011,7 35
12.10.2019 22:00:00 14,3 12,1 25 14 43 23 Z 1010,8 40
12.10.2019 21:00:00 14,5 11,0 18 10 36 19 Z 1011,1 40
12.10.2019 20:00:00 14,5 10,8 18 10 - - Z 1011,1 40
12.10.2019 19:00:00 14,6 11,1 18 10 36 19 Z 1010,8 40
12.10.2019 18:00:00 15,4 11,3 14 8 36 19 Z 1010,8 35
12.10.2019 17:00:00 15,6 11,5 22 12 - - ZZW 1011,0 45
12.10.2019 16:00:00 16,2 10,5 22 12 40 21 ZW 1011,6 40
12.10.2019 15:00:00 16,7 10,6 18 10 32 18 ZZW 1011,7 35
12.10.2019 14:00:00 15,7 10,0 18 10 - - ZW 1012,1 35
12.10.2019 13:00:00 13,9 9,5 22 12 40 21 ZZW 1012,5 30
12.10.2019 12:00:00 13,1 9,9 14 8 29 16 ZW 1012,3 35
12.10.2019 11:00:00 12,3 9,4 14 8 - - ZZW 1012,4 40
12.10.2019 10:00:00 12,0 8,9 14 8 32 18 ZW 1012,3 40
12.10.2019 09:00:00 11,6 9,0 14 8 32 18 ZZW 1011,7 30
12.10.2019 08:00:00 11,8 10,0 14 8 - - ZW 1011,0 30
12.10.2019 07:00:00 12,2 9,9 22 12 40 21 ZW 1010,8 35
12.10.2019 06:00:00 11,6 8,1 11 6 25 14 ZZW 1010,8 45
12.10.2019 05:00:00 12,1 9,9 14 8 - - ZZW 1010,7 40
12.10.2019 04:00:00 12,2 8,7 14 8 32 18 ZZW 1011,0 45
12.10.2019 03:00:00 12,6 9,1 22 12 36 19 ZZW 1010,9 45
12.10.2019 02:00:00 12,3 9,1 22 12 - - Z 1011,3 45
12.10.2019 01:00:00 12,7 9,8 18 10 29 16 ZZW 1012,0 35
12.10.2019 00:00:00 13,8 10,2 18 10 32 18 ZW 1012,1 40
11.10.2019 23:00:00 13,4 10,2 18 10 - - ZZW 1012,3 45
11.10.2019 22:00:00 13,7 10,5 14 8 32 18 ZW 1012,5 40
11.10.2019 21:00:00 13,5 10,2 18 10 32 18 ZW 1012,6 35
11.10.2019 20:00:00 13,0 9,8 14 8 - - ZZW 1013,0 35
11.10.2019 19:00:00 13,0 9,3 14 8 36 19 ZW 1013,1 45
11.10.2019 18:00:00 13,2 9,1 22 12 40 21 ZW 1012,9 45
11.10.2019 17:00:00 13,4 9,1 22 12 - - ZW 1013,0 40
11.10.2019 16:00:00 13,1 9,1 18 10 43 23 ZW 1013,3 40
11.10.2019 15:00:00 13,1 9,0 18 10 43 23 ZZW 1014,1 40
11.10.2019 14:00:00 12,7 8,7 18 10 - - ZW 1015,0 45
11.10.2019 13:00:00 12,8 8,7 22 12 36 19 ZW 1015,4 45
11.10.2019 12:00:00 12,2 8,6 22 12 40 21 ZW 1016,0 40
11.10.2019 11:00:00 11,5 8,6 22 12 - - ZZW 1015,8 30
11.10.2019 10:00:00 10,7 8,6 14 8 40 21 Z 1016,0 30
11.10.2019 09:00:00 9,5 7,6 22 12 32 18 Z 1016,2 26
11.10.2019 08:00:00 8,9 7,5 18 10 - - Z 1016,2 19
11.10.2019 07:00:00 8,6 5,5 11 6 29 16 Z 1016,8 22
11.10.2019 06:00:00 8,9 7,1 18 10 32 18 Z 1016,6 21
11.10.2019 05:00:00 8,6 5,6 18 10 - - Z 1017,3 21
11.10.2019 04:00:00 8,8 5,7 18 10 29 16 ZZW 1017,6 25
11.10.2019 03:00:00 8,3 6,4 14 8 29 16 ZZW 1017,7 29
11.10.2019 02:00:00 8,6 6,4 14 8 - - ZZW 1017,4 28
11.10.2019 01:00:00 8,9 5,7 18 10 32 18 ZW 1018,1 28
11.10.2019 00:00:00 8,9 6,6 18 10 29 16 ZW 1018,3 30
10.10.2019 23:00:00 9,4 7,3 18 10 - - ZW 1018,1 27
10.10.2019 22:00:00 9,8 7,5 18 10 29 16 ZW 1017,9 27
10.10.2019 21:00:00 9,8 6,8 18 10 32 18 WZW 1018,1 27
10.10.2019 20:00:00 9,5 7,8 14 8 - - ZW 1017,8 26
10.10.2019 19:00:00 10,1 7,5 18 10 36 19 ZW 1017,2 30
10.10.2019 18:00:00 10,5 7,5 18 10 29 16 ZW 1016,8 29
10.10.2019 17:00:00 10,9 7,9 18 10 - - ZW 1016,5 30
10.10.2019 16:00:00 10,3 8,2 14 8 32 18 WZW 1016,5 30
10.10.2019 15:00:00 11,0 5,6 14 8 36 19 W 1016,0 35
10.10.2019 14:00:00 11,4 5,9 18 10 - - W 1015,8 40
10.10.2019 13:00:00 10,4 6,4 18 10 36 19 W 1015,6 25
10.10.2019 12:00:00 9,8 6,2 22 12 40 21 W 1015,3 35
10.10.2019 11:00:00 8,7 5,8 18 10 - - W 1015,0 35
10.10.2019 10:00:00 7,8 6,0 18 10 36 19 W 1014,3 35
10.10.2019 09:00:00 7,3 6,2 18 10 36 19 W 1013,2 28
10.10.2019 08:00:00 7,2 6,0 18 10 - - W 1012,1 27
10.10.2019 07:00:00 7,1 5,7 18 10 36 19 WZW 1011,3 26
10.10.2019 06:00:00 7,5 6,1 18 10 40 21 W 1010,6 40
10.10.2019 05:00:00 7,6 - 18 10 - - WZW - 20
10.10.2019 04:00:00 7,8 6,4 22 12 43 23 WZW 1009,4 19
10.10.2019 03:00:00 7,5 6,0 22 12 40 21 ZW 1009,2 45
10.10.2019 02:00:00 7,8 5,4 25 14 - - WZW 1009,6 30
10.10.2019 01:00:00 7,8 5,9 18 10 40 21 ZW 1009,8 45
10.10.2019 00:00:00 7,6 4,8 22 12 40 21 ZW 1010,1 45
09.10.2019 23:00:00 7,4 5,2 18 10 - - WZW 1010,2 45
09.10.2019 22:00:00 7,5 5,9 18 10 32 18 WZW 1010,1 45
09.10.2019 21:00:00 8,0 6,2 18 10 40 21 WZW 1009,7 45

tt = temperatuur
td = dauwpunt
ff = windsnelheid
fx = windstoten
dd = windrichting
ppp = luchtdruk
vv = zicht

Weerstations in de omgeving